Stations météo

réclame
Mon MeteoGroup
Hemavan A, Suède (2101): Température de l'air & dewpoint: 12.01.2019 12:00:00 - 18.01.2019 12:00:00 (CET)Hemavan A, Suède (2101): Vitesse du vent: 12.01.2019 12:00:00 - 18.01.2019 12:00:00 (CET)Hemavan A, Suède (2101): Direction du vent: 12.01.2019 12:00:00 - 18.01.2019 12:00:00 (CET)Hemavan A, Suède (2101): reduced air pressure: 12.01.2019 12:00:00 - 18.01.2019 12:00:00 (CET)Hemavan A, Suède (2101): visibility: 12.01.2019 12:00:00 - 18.01.2019 12:00:00 (CET)
Date & Time tt [°C] td [°C] ff [km/h] ff [knt] dd ppp [hPa] vv [km]
18.01.2019 12:00:00 -8,7 -10,5 0 0 N 998,0 11
18.01.2019 11:00:00 -9,8 -11,6 0 0 N 997,5 5
18.01.2019 10:00:00 -11,6 -12,6 0 0 N 997,2 50
18.01.2019 09:00:00 -9,8 -11,8 0 0 N 996,5 50
18.01.2019 08:00:00 -10,0 -11,6 4 2 S 995,8 50
18.01.2019 07:00:00 -9,3 -10,6 7 4 ENE 994,8 50
18.01.2019 06:00:00 -8,0 -9,6 14 8 NNW 994,6 50
18.01.2019 05:00:00 -5,8 -9,0 11 6 NE 993,9 50
18.01.2019 04:00:00 -7,9 -10,1 4 2 NNE 993,8 50
18.01.2019 03:00:00 -5,9 -8,5 7 4 NNE 992,9 45
18.01.2019 02:00:00 -6,3 -8,1 7 4 NNW 992,4 50
18.01.2019 01:00:00 -7,5 -8,4 4 2 S 992,4 40
18.01.2019 00:00:00 -6,8 -8,2 4 2 NE 991,9 35
17.01.2019 23:00:00 -6,4 -7,6 7 4 W 991,5 15
17.01.2019 22:00:00 -6,0 -6,8 11 6 W 991,1 26
17.01.2019 21:00:00 -6,2 -6,7 4 2 W 990,6 50
17.01.2019 20:00:00 -15,5 -17,0 0 0 N 991,6 45
17.01.2019 19:00:00 -17,9 -19,8 0 0 N 991,9 50
17.01.2019 18:00:00 -18,8 -20,8 0 0 N 991,9 15
17.01.2019 17:00:00 -19,1 -21,1 0 0 N 992,1 9
17.01.2019 16:00:00 -20,0 -22,1 0 0 N 992,2 3,6
17.01.2019 15:00:00 -21,0 -23,3 0 0 N 992,1 6
17.01.2019 14:00:00 -22,5 -24,9 0 0 N 992,5 5
17.01.2019 13:00:00 -22,2 -24,4 0 0 N 992,8 6
17.01.2019 12:00:00 -22,9 -25,3 0 0 N 993,0 2,2
17.01.2019 11:00:00 -24,8 -27,2 0 0 N 993,5 3,2
17.01.2019 10:00:00 -26,5 -29,0 0 0 N 993,7 22
17.01.2019 09:00:00 -27,9 -30,7 0 0 N 993,7 50
17.01.2019 08:00:00 -26,3 -29,0 0 0 N 993,1 26
17.01.2019 07:00:00 -25,0 -27,4 0 0 N 992,7 29
17.01.2019 06:00:00 -26,7 -29,2 0 0 N 993,0 45
17.01.2019 05:00:00 -29,4 -32,3 0 0 N 993,6 50
17.01.2019 04:00:00 -29,6 -32,3 0 0 N 993,5 50
17.01.2019 03:00:00 -29,4 -32,3 0 0 N 993,6 50
17.01.2019 02:00:00 -28,8 -31,6 0 0 N 993,6 50
17.01.2019 01:00:00 -28,8 -31,6 0 0 N 993,8 26
17.01.2019 00:00:00 -28,2 -30,9 0 0 N 993,8 35
16.01.2019 23:00:00 -27,1 -29,7 0 0 N 993,7 17
16.01.2019 22:00:00 -26,7 -29,2 0 0 N 993,9 50
16.01.2019 21:00:00 -27,4 -30,1 0 0 N 993,9 45
16.01.2019 20:00:00 -27,8 -30,6 0 0 N 993,8 50
16.01.2019 19:00:00 -27,3 -30,0 0 0 N 993,8 1,5
16.01.2019 18:00:00 -27,2 -29,7 0 0 N 993,5 50
16.01.2019 17:00:00 -27,0 -29,5 0 0 N 993,8 11
16.01.2019 16:00:00 -26,2 -28,9 0 0 N 993,8 9
16.01.2019 15:00:00 -25,5 -27,9 0 0 N 994,2 9
16.01.2019 14:00:00 -25,0 -27,4 0 0 N 994,3 22
16.01.2019 13:00:00 -24,2 -26,8 0 0 N 994,8 1,6
16.01.2019 12:00:00 -23,8 -26,1 0 0 N 995,2 1,3
16.01.2019 11:00:00 -23,2 -25,5 0 0 N 995,4 2,4
16.01.2019 10:00:00 -22,7 -25,1 0 0 N 995,4 23
16.01.2019 09:00:00 -21,4 -23,6 0 0 N 995,7 1,1
16.01.2019 08:00:00 -20,4 -22,5 0 0 N 995,9 1,7
16.01.2019 07:00:00 -19,8 -21,9 0 0 N 995,9 18
16.01.2019 06:00:00 -19,2 -21,2 0 0 N 996,2 1,7
16.01.2019 05:00:00 -19,2 -21,4 4 2 S 996,0 0,3
16.01.2019 04:00:00 -19,0 -21,0 0 0 N 996,6 0,4
16.01.2019 03:00:00 -19,1 -21,1 0 0 N 996,7 0,4
16.01.2019 02:00:00 -19,5 -21,6 0 0 N 996,8 14
16.01.2019 01:00:00 -19,8 -21,9 0 0 N 996,9 4,2
16.01.2019 00:00:00 -19,6 -21,7 4 2 NNW 996,7 0,4
15.01.2019 23:00:00 -19,6 -21,7 4 2 WSW 996,9 3,6
15.01.2019 22:00:00 -19,3 -21,5 4 2 SSE 996,4 2,8
15.01.2019 21:00:00 -19,6 -21,7 4 2 N 996,0 2,0
15.01.2019 20:00:00 -20,2 -22,3 0 0 N 996,0 14
15.01.2019 19:00:00 -20,9 -23,2 0 0 N 995,6 14
15.01.2019 18:00:00 -22,0 -24,2 0 0 N 995,7 11
15.01.2019 17:00:00 -23,8 -26,1 0 0 N 995,7 12
15.01.2019 16:00:00 -24,8 -27,2 0 0 N 995,6 10
15.01.2019 15:00:00 -25,4 -27,8 0 0 N 995,2 9
15.01.2019 14:00:00 -24,5 -27,0 0 0 N 994,5 6
15.01.2019 13:00:00 -23,2 -25,5 0 0 N 994,3 0,8
15.01.2019 12:00:00 -23,5 -25,8 0 0 N 994,2 8
15.01.2019 11:00:00 -22,7 -25,1 0 0 N 994,1 0,6
15.01.2019 10:00:00 -21,6 -23,8 0 0 N 994,1 0,2
15.01.2019 09:00:00 -22,1 -24,3 4 2 NE 994,1 11
15.01.2019 08:00:00 -22,4 -24,8 4 2 ENE 994,3 17
15.01.2019 07:00:00 -22,2 -24,4 0 0 N 994,1 14
15.01.2019 06:00:00 -21,3 -23,4 0 0 N 994,4 26
15.01.2019 05:00:00 -21,0 -23,1 0 0 N 994,8 23
15.01.2019 04:00:00 -19,0 -20,7 4 2 SSW 994,7 19
15.01.2019 03:00:00 -18,8 -21,0 7 4 NNW 994,6 20
15.01.2019 02:00:00 -19,8 -21,9 0 0 N 994,5 23
15.01.2019 01:00:00 -17,0 -18,6 0 0 N 993,8 17
15.01.2019 00:00:00 -13,8 -15,4 0 0 N 993,1 19
14.01.2019 23:00:00 -8,8 -14,0 7 4 WNW 992,1 22
14.01.2019 22:00:00 -8,1 -11,7 7 4 NW 991,6 26
14.01.2019 21:00:00 -8,2 -11,4 14 8 NNW 991,3 21
14.01.2019 20:00:00 -12,7 -14,1 4 2 E 991,2 20
14.01.2019 19:00:00 -10,9 -12,2 0 0 N 990,4 40
14.01.2019 18:00:00 -13,3 -14,9 0 0 N 990,1 9
14.01.2019 17:00:00 -14,0 -15,6 4 2 W 989,6 5
14.01.2019 16:00:00 -17,4 -19,3 4 2 NE 989,4 45
14.01.2019 15:00:00 -15,6 -17,3 0 0 N 988,6 50
14.01.2019 14:00:00 -12,7 -14,1 7 4 NNW 987,2 50
14.01.2019 13:00:00 -18,3 -20,0 7 4 NNW 987,0 50
14.01.2019 12:00:00 -22,8 -25,2 7 4 N 986,4 50
14.01.2019 11:00:00 -24,1 -26,6 0 0 N 985,8 50
14.01.2019 10:00:00 -25,6 -28,0 0 0 N 985,2 50
14.01.2019 09:00:00 -24,8 -27,1 4 2 NW 984,0 30
14.01.2019 08:00:00 -25,0 -27,4 0 0 N 982,9 50
14.01.2019 07:00:00 -25,0 -27,4 0 0 N 981,8 50
14.01.2019 06:00:00 -24,0 -26,4 0 0 N 980,7 50
14.01.2019 05:00:00 -23,3 -25,6 0 0 N 979,7 50
14.01.2019 04:00:00 -21,2 -23,3 0 0 N 978,9 50
14.01.2019 03:00:00 -19,7 -21,4 0 0 N 978,4 35
14.01.2019 02:00:00 -19,9 -21,9 0 0 N 978,2 50
14.01.2019 01:00:00 -19,0 -21,0 0 0 N 977,8 50
14.01.2019 00:00:00 -17,2 -18,8 4 2 NNW 977,6 20
13.01.2019 23:00:00 -14,4 -15,5 4 2 W 977,4 50
13.01.2019 22:00:00 -10,9 -15,1 0 0 N 976,5 50
13.01.2019 21:00:00 -9,6 -12,4 0 0 N 976,1 50
13.01.2019 20:00:00 -7,3 -11,7 11 6 NNW 975,4 50
13.01.2019 19:00:00 -5,8 -9,7 18 10 NW 974,7 14
13.01.2019 18:00:00 -5,6 -9,7 11 6 N 974,2 50
13.01.2019 17:00:00 -5,2 -8,8 14 8 NNW 973,8 50
13.01.2019 16:00:00 -5,4 -8,1 11 6 WNW 973,7 15
13.01.2019 15:00:00 -5,9 -7,4 11 6 NW 973,6 4,0
13.01.2019 14:00:00 -6,5 -7,4 4 2 N 973,5 1,5
13.01.2019 13:00:00 -6,7 -7,6 4 2 N 973,6 1,4
13.01.2019 12:00:00 -6,6 -7,5 4 2 WNW 974,0 1,2
13.01.2019 11:00:00 -6,4 -7,6 4 2 E 974,6 1,7
13.01.2019 10:00:00 -6,4 -7,6 7 4 ESE 975,8 1,7
13.01.2019 09:00:00 -6,6 -7,5 7 4 SE 977,0 3,6
13.01.2019 08:00:00 -7,0 -7,8 0 0 N 978,5 2,4
13.01.2019 07:00:00 -7,4 -8,3 4 2 WNW 979,7 2,2
13.01.2019 06:00:00 -7,2 -8,1 4 2 SE 981,0 2,0
13.01.2019 05:00:00 -7,8 -8,7 0 0 N 982,9 2,9
13.01.2019 04:00:00 -8,1 -9,0 0 0 N 984,4 4,0
13.01.2019 03:00:00 -8,3 -9,0 4 2 ESE 986,0 40
13.01.2019 02:00:00 -7,7 -8,6 0 0 N 987,0 26
13.01.2019 01:00:00 -8,2 -9,1 0 0 N 988,5 21
13.01.2019 00:00:00 -8,3 -9,4 4 2 WNW 989,5 40
12.01.2019 23:00:00 -8,5 -9,6 0 0 N 990,4 40
12.01.2019 22:00:00 -9,4 -10,5 4 2 NNE 991,8 40
12.01.2019 21:00:00 -9,8 -10,7 4 2 E 992,3 50
12.01.2019 20:00:00 -8,9 -9,8 4 2 NW 993,0 26
12.01.2019 19:00:00 -8,3 -9,5 0 0 N 993,4 50
12.01.2019 18:00:00 -7,2 -8,8 4 2 N 993,6 50
12.01.2019 17:00:00 -5,9 -8,5 4 2 NNW 994,0 50
12.01.2019 16:00:00 -5,1 -8,7 11 6 W 994,4 50
12.01.2019 15:00:00 -4,5 -8,3 11 6 WNW 994,6 50
12.01.2019 14:00:00 -3,9 -8,4 11 6 W 994,8 50
12.01.2019 13:00:00 -4,1 -8,2 11 6 W 995,1 50
12.01.2019 12:00:00 -5,0 -8,2 4 2 NNW 995,3 45

tt = Température de l'air
td = dewpoint
ff = Vitesse du vent
dd = Direction du vent
ppp = reduced air pressure
vv = visibility

stations d'obs. à proximité